TimeEDT,TemperatureF,Dew PointF,Humidity,Sea Level PressureIn,VisibilityMPH,Wind Direction,Wind SpeedMPH,Gust SpeedMPH,PrecipitationIn,Events,Conditions,WindDirDegrees,DateUTC
12:56 AM,41.0,37.9,89,30.02,7.0,SW,6.9,-,N/A,,Clear,220,2012-10-21 04:56:00
1:56 AM,38.8,36.9,93,30.03,6.0,SW,5.8,-,N/A,,Clear,220,2012-10-21 05:56:00
2:56 AM,37.9,36.0,93,30.06,2.0,SSW,4.6,-,N/A,,Clear,210,2012-10-21 06:56:00
3:11 AM,37.4,37.4,100,30.05,3.0,SW,4.6,-,N/A,,Clear,220,2012-10-21 07:11:00
3:28 AM,37.4,35.6,93,30.05,2.0,SW,5.8,-,N/A,,Clear,220,2012-10-21 07:28:00
3:56 AM,36.9,36.0,97,30.06,2.0,SW,4.6,-,N/A,,Clear,220,2012-10-21 07:56:00
4:03 AM,37.4,35.6,93,30.05,1.5,SW,5.8,-,N/A,,Clear,220,2012-10-21 08:03:00
4:11 AM,37.4,35.6,93,30.06,1.0,SW,4.6,-,N/A,,Clear,220,2012-10-21 08:11:00
4:20 AM,37.4,35.6,93,30.06,1.5,SW,5.8,-,N/A,,Clear,230,2012-10-21 08:20:00
4:24 AM,37.4,35.6,93,30.06,1.0,SW,5.8,-,N/A,,Clear,220,2012-10-21 08:24:00
4:31 AM,37.4,35.6,93,30.07,0.8,SW,4.6,-,N/A,,Clear,220,2012-10-21 08:31:00
4:35 AM,37.4,35.6,93,30.07,1.2,SW,5.8,-,N/A,,Clear,220,2012-10-21 08:35:00
4:42 AM,37.4,35.6,93,30.07,1.8,SW,5.8,-,N/A,,Clear,220,2012-10-21 08:42:00
4:56 AM,36.9,34.9,93,30.09,1.2,SW,4.6,-,N/A,,Clear,220,2012-10-21 08:56:00
5:00 AM,37.4,35.6,93,30.07,0.8,SW,4.6,-,N/A,,Clear,220,2012-10-21 09:00:00
5:05 AM,35.6,33.8,93,30.08,0.2,SW,3.5,-,N/A,Fog,Fog,220,2012-10-21 09:05:00
5:56 AM,31.1,30.0,96,30.11,0.5,Calm,Calm,-,N/A,Fog,Light Freezing Fog,0,2012-10-21 09:56:00
6:26 AM,35.6,33.8,93,30.10,1.0,SSW,5.8,-,N/A,,Clear,210,2012-10-21 10:26:00
6:42 AM,35.6,33.8,93,30.11,0.8,SSW,4.6,-,N/A,,Clear,210,2012-10-21 10:42:00
6:56 AM,36.9,36.0,97,30.12,1.8,SSW,3.5,-,N/A,,Clear,210,2012-10-21 10:56:00
7:10 AM,35.6,33.8,93,30.11,1.0,SSW,3.5,-,N/A,,Clear,210,2012-10-21 11:10:00
7:17 AM,35.6,33.8,93,30.11,0.8,Calm,Calm,-,N/A,,Clear,0,2012-10-21 11:17:00
7:29 AM,33.8,32.0,93,30.12,0.2,SSW,3.5,-,N/A,Fog,Fog,210,2012-10-21 11:29:00
7:56 AM,30.0,29.1,96,30.14,0.2,Calm,Calm,-,N/A,Fog,Light Freezing Fog,0,2012-10-21 11:56:00
8:41 AM,35.6,33.8,93,30.14,0.5,SSW,4.6,-,N/A,Fog,Fog,200,2012-10-21 12:41:00
8:44 AM,37.4,35.6,93,30.14,1.0,SSW,4.6,-,N/A,,Clear,200,2012-10-21 12:44:00
8:46 AM,37.4,35.6,93,30.14,1.5,SSW,4.6,-,N/A,,Clear,210,2012-10-21 12:46:00
8:56 AM,38.8,37.9,97,30.16,2.0,SW,4.6,-,N/A,,Clear,220,2012-10-21 12:56:00
9:24 AM,42.8,41.0,93,30.15,3.0,SSW,4.6,-,N/A,,Clear,210,2012-10-21 13:24:00
9:56 AM,45.9,43.9,93,30.15,5.0,Calm,Calm,-,N/A,,Clear,0,2012-10-21 13:56:00
10:56 AM,50.0,39.9,68,30.16,6.0,South,5.8,-,N/A,,Haze,170,2012-10-21 14:56:00
11:56 AM,52.0,39.9,63,30.17,6.0,SW,8.1,-,N/A,,Haze,220,2012-10-21 15:56:00
12:56 PM,54.9,41.9,62,30.17,6.0,SW,6.9,-,N/A,,Haze,220,2012-10-21 16:56:00
1:56 PM,57.9,41.9,55,30.14,6.0,Variable,4.6,-,N/A,,Haze,0,2012-10-21 17:56:00
2:56 PM,59.9,43.0,54,30.12,5.0,SSW,6.9,-,N/A,,Haze,200,2012-10-21 18:56:00
3:56 PM,61.9,43.9,52,30.11,6.0,SSW,8.1,-,N/A,,Haze,200,2012-10-21 19:56:00
4:56 PM,61.9,43.0,50,30.11,6.0,SSW,9.2,-,N/A,,Haze,200,2012-10-21 20:56:00
5:56 PM,61.9,43.0,50,30.11,6.0,SSW,5.8,-,N/A,,Haze,210,2012-10-21 21:56:00
6:56 PM,56.8,43.0,60,30.11,6.0,SSE,3.5,-,N/A,,Haze,150,2012-10-21 22:56:00
7:56 PM,50.0,43.0,77,30.12,7.0,ESE,5.8,-,N/A,,Clear,110,2012-10-21 23:56:00
8:56 PM,52.0,43.0,71,30.12,7.0,SSE,6.9,-,N/A,,Clear,150,2012-10-22 00:56:00
9:56 PM,52.9,43.0,69,30.13,7.0,SSE,6.9,-,N/A,,Clear,160,2012-10-22 01:56:00
10:56 PM,47.8,41.0,77,30.14,7.0,SE,4.6,-,N/A,,Clear,140,2012-10-22 02:56:00
11:56 PM,45.0,39.9,82,30.13,7.0,SE,5.8,-,N/A,,Clear,140,2012-10-22 03:56:00